Погода в Медвежьем

Россия / Орловская область     52°39′45″N   37°38′14″E
темп.,
°C
ветер,
м/с
пор.,
м/с
влажн.,
%
обл.,
%
осадки,
мм/ч
давл.,
гПа
погр.,
м
5 декабря, вс
вс500:00−3юз36905 0.0 1015232
03:00−3юз24905 0.0 1015146
06:00−3ююз2382100 0.0 1015135
09:00−2ю3477100 0.0 1016223
12:00−1ююз3469100 0.0 1016349
15:00−1ю23662 0.0 1016273
18:00−2ю236810 0.0 101768
21:00−2ю236798 0.0 101887
6 декабря, пн
пн600:00−3ююв2466100 0.0 1019112
03:00−3ююв2464100 0.0 1020115
06:00−3ююв3564100 0.0 1020174
09:00−2юв3861100 0.0 1021274
12:00−1юв4954100 0.0 1021381
15:00−1юв3755100 0.0 1020404
18:00−2юв4963100 0.0 1020306
21:00−2юв51077100 0.0 1020341
7 декабря, вт
вт700:00−2юв51187100 0.0 1019375
03:00−1юв71397100 1.3 1017421
06:000юв81596100 2.3 1015526
09:00+1ююв71598100 3.9 1014462
12:00+2ююв61498100 1.4 1013438
15:00+2ююв51299100 4.6 1012337
18:00+4ю61699100 0.6 1011407
21:00+4ю71698100 2.4 1012395
8 декабря, ср
ср800:00+2ююв61493100 1.8 1012323
03:00+2ююв51294100 1.8 1012255
06:00+1ююв41096100 0.0 1012212
09:00+1ююв4897100 0.0 1013167
12:00+2юв3697100 0.0 1013180
15:00+2вюв4797100 0.0 1012176
18:00+1вюв3797100 0.0 1013158
21:00+1вюв4897100 0.0 1012189
9 декабря, чт
чт900:00+1вюв3698100 0.0 1012173
03:00+1в379892 0.0 1013160
06:00+1вюв3598100 0.0 1012103
09:00+1вюв3798100 0.0 1013165
12:00+2юв3598100 0.0 1013138
15:00+2вюв3599100 0.8 1012114
18:00+2юв3699100 0.9 1013160
21:00+2вюв2497100 2.3 101497